Tracking 27401 objects as of 3-Jun-2023
HD Live streaming from Space Station
objects crossing your sky now

THOR ABLESTAR DEB

Track THOR ABLESTAR DEB now!
10-day predictions


NORAD ID: 13513
Int'l Code: 1961-015KW
Perigee: 880.4 km
Apogee: 1,019.8 km
Inclination: 65.7 °
Period: 103.9 minutes
Semi major axis: 7321 km
RCS: 0.0483 m2 (small)
Launch date: June 29, 1961
Source: United States (US)
Launch site: AIR FORCE EASTERN TEST RANGE (AFETR)

Note: This is SATELLITE DEBRIS
Your satellite tracking list
Your tracking list is empty




NASA's NSSDC Master Catalog

Two Line Element Set (TLE):
1 13513U 61015KW  23154.39098602  .00001370  00000-0  12198-2 0  9992
2 13513  65.6783 132.4544 0095207   8.7459 143.3960 13.85933091165559
Source of the keplerian elements: AFSPC